CZ-6A DEB, 54920

Orbit data source: Space-Track

CZ-6A DEB, 54920 is space debris in SSO originally from a launch on Fri, 11 Nov 2022 UTC launched from the Taiyaun Space Center, China (TSC). Debris objects in space refer to the collection of defunct objects orbiting the Earth. Examples of debris include non-operational satellites, rocket bodies, and fragments generated from explosions, collisions, or faulty payload assembly.

Loading next visibility...
Identifier
54920, 2022-151RH
Orbit
SSO
Country
Flag of CNCN / PRC
Related business
Manufacturer
SAST
Mission
Spacecraft
Bus & Motor
Unknown
Mass
Unknown
Launch date (UTC)
2022-11-11 (4 years ago)
Launch vehicle
Unknown
Launch site
Taiyaun Space Center, China (TSC)
Object type
Payload
Rocket body
Debris
Shape & HBR
Unknown shape, 0.1 m
Radar Cross Section
Medium (>0.1 m² and <1 m²)

Expand to show TLE details & history
Last TLE update: 20 hours ago

TLE from 20 hours ago
0 CZ-6A DEB
1 54920U 22151RH  26236.17589435  .00014928  00000-0  18189-2 0  9995
2 54920  98.6265 316.1740 0060330  41.8247 318.7551 14.82195040197346
Epoch: 2026-08-24T04:13Z
TLE epoch observation values (Epoch: 2026-08-24T04:13:17.271Z)
Latitude
-0.00003°
Longitude
-79.60932°
Altitude
593.755 km
Speed
7.58 km/s
True Right ascension
21h 04m 41s
True Declination
0° 00' 00"
Sunlit
Object was in full shadow at epoch
Visualization orbit readout
Latitude
Unknown
Longitude
Unknown
Altitude
Unknown
Speed
Unknown
Apparent Right ascension
Unknown
Apparent Declination
Unknown
Sunlit
N/A
Visualization observer readout
Local Sidereal Time
15:55:52
Azimuth
Unknown
Elevation
Unknown
Doppler factor
Unknown
Orbital elements
Apogee altitude
661.692 km
Perigee altitude
577.259 km
Semi-major axis
6,997.613 km
Eccentricity
0.00603
Inclination
98.6265°
RAAN
316.174°
Arg. of periapsis
41.8247°
True anomaly
318.29673°
Mean anomaly
318.7551°
Eccentric anomaly
318.52617°
Mean motion
3.70782 °/min
Orbital period
97.09 mins
BSTAR
0.0018189
Loading maneuver chart data...
Computing Atmospheric mass density...

Documentation

Showing up to 5 results
|